ROMMA est une association bénévole à but non lucratif. Votre soutien est indispensable : ADHERER à ROMMA ou FAIRE un DON

Saint-Martin-d'Hères - (38, Isère)

Vallée du Grésivaudan (220 m)   Longitude: 05° 45' 05" E   Latitude: 45° 10' 02" N Station partenaire n°4
 

Détail journalier du     <<     >>

Température Precipitation Humidité Pression Vent Dir Rafale Dir. rafale Ensol.
Heure (°C) (mm) (%) (hPa) (km/h) (km/h) (min)
01:00 16.3076101203SSE0
02:00 15.8078101203SE0
03:00 15.3079101200---0
04:00 14.0083101200---0
05:00 12.6088101100---0
06:00 12.0090101100---0
07:00 11.2091101100---0
08:00 11.1091101100---0
09:00 11.4092101100---0
10:00 12.3091101100---0
11:00 15.2081101102SE20
12:00 19.4064101100---60
13:00 21.3052101100---40
14:00 21.3054101100---0
15:00 22.4049101006SSE0
16:00 21.5054101106S0
17:00 20.605710111S10SSO0
18:00 19.2063101105SSE0
19:00 18.4064101205SE0
20:00 17.6072101302ESE0
21:00 16.6073101300---0
22:00 15.8074101400---0
23:00 14.6079101400---0
minuit 14.7080101500---0

Graphique du 15-10-2018

 

Serveur OMMA